Regional Weather Roundup
Issued by NWS

Home | Current Version | Previous Version | Text Only | Print | Product List | Glossary Off
Versions: 1 2 3 4 5 6 7 8 9 10 11 12 13 14 15 16 17 18 19 20 21 22 23 24 25 26 27 28 29 30 31 32 33 34 35 36 37 38 39 40 41 42 43 44 45 46 47 48 49 50

000
ASUS43 KDTX 220210
RWRMI
MICHIGAN HOURLY REGIONAL WEATHER ROUNDUP
NATIONAL WEATHER SERVICE DETROIT/PONTIAC MI
1000 PM EDT MON JUL 21 2014

NOTE: "FAIR" INDICATES FEW OR NO CLOUDS BELOW 12,000 FEET WITH NO
SIGNIFICANT WEATHER AND/OR OBSTRUCTION TO VISIBILITY.

MIZ047>049-052>055-059>063-066>070-074>076-081>083-220300-
SOUTHEAST LOWER MICHIGAN

CITY           SKY/WX    TMP DP  RH WIND       PRES   REMARKS
ADRIAN         CLEAR     74  60  61 SE3       30.13R
ALMA           CLEAR     71  66  83 CALM      30.10R
ANN ARBOR      CLEAR     70  57  63 CALM      30.12R
BAD AXE        CLEAR     71  64  80 CALM      30.11R
CARO           CLEAR     70  68  94 CALM      30.10R
DETROIT CITY   CLEAR     77  56  48 S6        30.12R
DETROIT        PTCLDY    74  61  63 SE3       30.13R
FLINT          CLEAR     73  63  70 S3        30.11R
GROSSE ILE     CLEAR     73  63  68 SE3       30.11R
HILLSDALE      CLEAR     71  66  85 CALM      30.13R
HOWELL         CLEAR     73  60  65 SE7       30.12R

CITY           SKY/WX    TMP DP  RH WIND       PRES   REMARKS
JACKSON        CLEAR     72  65  78 CALM      30.12R
LAMBERTVILLE   CLEAR     72  59  64 CALM      30.13R
LANSING        CLEAR     77  62  59 S5        30.11R
LAPEER         FAIR      73  62  70 SE3       30.12R
MASON          CLEAR     72  65  79 CALM      30.11S
MONROE         CLEAR     73  61  64 SE3       30.11R
MT. CLEMENS    CLEAR     71  60  67 S7        30.11R
PONTIAC        CLEAR     76  56  49 S6        30.12R
PORT HOPE        N/A     72  67  84 CALM      30.08R
PORT HURON     CLEAR     68  63  83 CALM      30.13R
TRI CITIES     CLEAR     77  65  66 S6        30.10R
TROY           CLEAR     77  55  47 S6        30.13R
SAGINAW HB     CLEAR     73  64  73 CALM      30.09R
$$
MIZ043>046-050>051-056>058-064>065-071>073-077>080-220300-
SOUTHWEST LOWER MICHIGAN

CITY           SKY/WX    TMP DP  RH WIND       PRES   REMARKS
BATTLE CREEK   CLEAR     78  64  61 SE5       30.11S
BENTON HARBOR  CLEAR     71  65  81 CALM      30.08R
BIG RAPIDS     CLEAR     71  64  78 CALM      30.09R
COLDWATER      CLEAR     73  66  78 CALM      30.11R
FREMONT        FAIR      71  61  70 CALM      30.08R
HOLLAND        CLEAR     73  65  75 CALM      30.09R
GRAND RAPIDS   CLEAR     77  66  68 S5        30.09R
IONIA          FAIR      71  65  80 CALM      30.09R
KALAMAZOO      CLEAR     74  65  73 CALM      30.10R
LUDINGTON      CLEAR     74  60  60 S6        30.06S
MARSHALL       CLEAR     70  65  84 CALM      30.10S
MOUNT PLEASANT CLEAR     76  64  65 S3        30.08S
MUSKEGON       CLEAR     73  61  65 S3        30.08S
SOUTH HAVEN    CLEAR     70  67  92 CALM      30.08R
$$
MIZ016>042-220300-
NORTHERN LOWER MICHIGAN

CITY           SKY/WX    TMP DP  RH WIND       PRES   REMARKS
ALPENA         CLOUDY    74  66  76 S6        30.06R
BEAVER ISLAND  CLEAR     70  59  68 SW7       30.04R
BELLAIRE       CLEAR     72  64  77 CALM      30.04R
CADILLAC       CLEAR     71  62  74 SW3       30.09R
CHARLEVOIX     CLEAR     72  65  79 CALM      30.07S
FRANKFORT      CLEAR     72  59  63 CALM      30.05R
GAYLORD        CLEAR     78  63  59 SW3       30.09R
GRAYLING       CLEAR     74  63  67 S3        30.09S
HARBOR SPRINGS CLOUDY    71  64  77 CALM      30.05R
HOUGHTON LAKE  CLEAR     71  64  78 S7        30.10R
MANISTEE       CLEAR     73  57  56 CALM      30.06R
OSCODA         CLEAR     74  63  68 CALM      30.07R
PELLSTON       CLOUDY    72  63  73 W3        30.05S
ROGERS CITY    MOCLDY    72  65  79 CALM      30.06R
TRAVERSE CITY  PTCLDY    77  62  59 CALM      30.04R
$$
MIZ007>008-015-220300-
EASTERN UPPER MICHIGAN

CITY           SKY/WX    TMP DP  RH WIND       PRES   REMARKS
KINROSS        CLEAR     72  63  73 S3        30.04R
MACKINAC ISLAN CLEAR     68  60  74 W6        30.04S
NEWBERRY       CLEAR     67  58  73 SW12G23   30.02R
S. S. MARIE    CLEAR     73  61  65 SW3       30.03R
MUNISING         N/A     76  62  62 S9        29.96R
$$
MIZ004>006-011>014-085-220300-
CENTRAL UPPER MICHIGAN

CITY           SKY/WX    TMP DP  RH WIND       PRES   REMARKS
MANISTIQUE     CLEAR     63  60  91 S7        30.02R
ESCANABA       CLEAR     70  61  73 SW10      29.99R
MENOMINEE      CLOUDY    73  63  68 S7        29.99S
SAWYER-GWINN   CLEAR     77  70  78 S8        29.99R
$$
MIZ001>003-009>011-084-220300-
WESTERN UPPER MICHIGAN

CITY           SKY/WX    TMP DP  RH WIND       PRES   REMARKS
IRON MOUNTAIN  CLEAR     77  69  76 S9        29.97F
HOUGHTON       CLEAR     74  70  87 E3        29.91S FOG
COPPER HARBOR    N/A     74  68  81 CALM      29.89
IRONWOOD       CLEAR     81  70  69 S8        29.88R
$$

ABBREVIATIONS USED IN REMARKS
   TC - TEMPERATURE IN CELSIUS
  WCI - WIND CHILL INDEX
   HX - HEAT INDEX
  VSB - VISIBILITY




USA.gov is the U.S. government's official web portal to all federal, state and local government web resources and services.